{"data":{"norad_id":57117,"epoch":"2026-05-24T15:40:59.857248Z","epoch_age_seconds":111958,"freshness":"FRESH","line1":"1 57117U 23090S   26144.65347057 -.00000322  00000+0 -21806-5 0  9999","line2":"2 57117  43.0017 212.2452 0001304 267.1329  92.9374 15.27575971161948","mean_motion":15.27575971,"eccentricity":0.0001304,"inclination_deg":43.0017,"raan_deg":212.2452,"arg_perigee_deg":267.1329,"mean_anomaly_deg":92.9374,"bstar":-2.1806e-6,"rev_number":16194,"period_min":94.266997343335,"perigee_km":482.16646010149,"apogee_km":483.9558605817,"semimajor_km":6861.1981603416,"source":"CELESTRAK","updated_at":"2026-05-25T13:38:18.242703Z"}}